Time,TemperatureF,DewpointF,PressureIn,WindDirection,WindDirectionDegrees,WindSpeedMPH,WindSpeedGustMPH,Humidity,HourlyPrecipIn,Conditions,Clouds,dailyrainin,SoftwareType,DateUTC
2013-01-17 00:00:00,38.0,34.0,30.56,NNW,330,3.0,-999.0,87,-99.99,,,-99.99,,2013-01-17 08:00:00,
2013-01-17 00:22:00,38.0,34.0,30.56,NNW,330,3.0,-999.0,87,-99.99,,,-99.99,,2013-01-17 08:22:00,
2013-01-17 00:32:00,38.0,34.0,30.56,NNW,330,3.0,-999.0,87,-99.99,,,-99.99,,2013-01-17 08:32:00,
2013-01-17 00:42:00,38.0,34.0,30.56,NNW,330,3.0,-999.0,87,-99.99,,,-99.99,,2013-01-17 08:42:00,
2013-01-17 00:52:00,38.0,34.0,30.56,NNW,330,3.0,-999.0,87,-99.99,,,-99.99,,2013-01-17 08:52:00,
2013-01-17 01:00:00,38.0,36.0,30.56,West,260,7.0,-999.0,90,-99.99,,,-99.99,,2013-01-17 09:00:00,
2013-01-17 01:21:00,38.0,36.0,30.56,West,260,7.0,-999.0,90,-99.99,,,-99.99,,2013-01-17 09:21:00,
2013-01-17 01:32:00,38.0,36.0,30.56,West,260,7.0,-999.0,90,-99.99,,,-99.99,,2013-01-17 09:32:00,
2013-01-17 01:42:00,38.0,36.0,30.56,West,260,7.0,-999.0,90,-99.99,,,-99.99,,2013-01-17 09:42:00,
2013-01-17 01:52:00,38.0,36.0,30.56,West,260,7.0,-999.0,90,-99.99,,,-99.99,,2013-01-17 09:52:00,
2013-01-17 02:00:00,36.0,34.0,30.54,West,280,7.0,-999.0,91,-99.99,,,-99.99,,2013-01-17 10:00:00,
2013-01-17 02:21:00,36.0,34.0,30.54,West,280,7.0,-999.0,91,-99.99,,,-99.99,,2013-01-17 10:21:00,
2013-01-17 02:32:00,36.0,34.0,30.54,West,280,7.0,-999.0,91,-99.99,,,-99.99,,2013-01-17 10:32:00,
2013-01-17 02:42:00,36.0,34.0,30.54,West,280,7.0,-999.0,91,-99.99,,,-99.99,,2013-01-17 10:42:00,
2013-01-17 02:52:00,36.0,34.0,30.54,West,280,7.0,-999.0,91,-99.99,,,-99.99,,2013-01-17 10:52:00,
2013-01-17 03:00:00,36.0,34.0,30.54,WNW,290,6.0,-999.0,91,-99.99,,,-99.99,,2013-01-17 11:00:00,
2013-01-17 03:22:00,36.0,34.0,30.54,WNW,290,6.0,-999.0,91,-99.99,,,-99.99,,2013-01-17 11:22:00,
2013-01-17 03:32:00,36.0,34.0,30.54,WNW,290,6.0,-999.0,91,-99.99,,,-99.99,,2013-01-17 11:32:00,
2013-01-17 03:42:00,36.0,34.0,30.54,WNW,290,6.0,-999.0,91,-99.99,,,-99.99,,2013-01-17 11:42:00,
2013-01-17 03:52:00,36.0,34.0,30.54,WNW,290,6.0,-999.0,91,-99.99,,,-99.99,,2013-01-17 11:52:00,
2013-01-17 04:00:00,36.0,34.0,30.52,West,280,7.0,-999.0,93,-99.99,,,-99.99,,2013-01-17 12:00:00,
2013-01-17 04:22:00,36.0,34.0,30.52,West,280,7.0,-999.0,93,-99.99,,,-99.99,,2013-01-17 12:22:00,
2013-01-17 04:32:00,36.0,34.0,30.52,West,280,7.0,-999.0,93,-99.99,,,-99.99,,2013-01-17 12:32:00,
2013-01-17 04:42:00,36.0,34.0,30.52,West,280,7.0,-999.0,93,-99.99,,,-99.99,,2013-01-17 12:42:00,
2013-01-17 04:52:00,36.0,34.0,30.52,West,280,7.0,-999.0,93,-99.99,,,-99.99,,2013-01-17 12:52:00,
2013-01-17 05:00:00,37.0,35.0,30.50,West,270,8.0,-999.0,93,-99.99,,,-99.99,,2013-01-17 13:00:00,
2013-01-17 05:22:00,37.0,35.0,30.50,West,270,8.0,-999.0,93,-99.99,,,-99.99,,2013-01-17 13:22:00,
2013-01-17 05:32:00,37.0,35.0,30.50,West,270,8.0,-999.0,93,-99.99,,,-99.99,,2013-01-17 13:32:00,
2013-01-17 05:42:00,37.0,35.0,30.50,West,270,8.0,-999.0,93,-99.99,,,-99.99,,2013-01-17 13:42:00,
2013-01-17 05:52:00,37.0,35.0,30.50,West,270,8.0,-999.0,93,-99.99,,,-99.99,,2013-01-17 13:52:00,
2013-01-17 06:00:00,37.0,36.0,30.48,West,270,9.0,-999.0,93,-99.99,,,-99.99,,2013-01-17 14:00:00,
2013-01-17 06:22:00,37.0,36.0,30.48,West,270,9.0,-999.0,93,-99.99,,,-99.99,,2013-01-17 14:22:00,
2013-01-17 06:32:00,37.0,36.0,30.48,West,270,9.0,-999.0,93,-99.99,,,-99.99,,2013-01-17 14:32:00,
2013-01-17 06:42:00,37.0,36.0,30.48,West,270,9.0,-999.0,93,-99.99,,,-99.99,,2013-01-17 14:42:00,
2013-01-17 06:52:00,37.0,36.0,30.48,West,270,9.0,-999.0,93,-99.99,,,-99.99,,2013-01-17 14:52:00,
2013-01-17 07:00:00,36.0,35.0,30.46,West,270,8.0,-999.0,95,-99.99,,,-99.99,,2013-01-17 15:00:00,
2013-01-17 07:22:00,36.0,35.0,30.46,West,270,8.0,-999.0,95,-99.99,,,-99.99,,2013-01-17 15:22:00,
2013-01-17 07:32:00,36.0,35.0,30.46,West,270,8.0,-999.0,95,-99.99,,,-99.99,,2013-01-17 15:32:00,
2013-01-17 07:42:00,36.0,35.0,30.46,West,270,8.0,-999.0,95,-99.99,,,-99.99,,2013-01-17 15:42:00,
2013-01-17 07:52:00,36.0,35.0,30.46,West,270,8.0,-999.0,95,-99.99,,,-99.99,,2013-01-17 15:52:00,
2013-01-17 08:00:00,36.0,36.0,30.47,West,270,7.0,-999.0,97,-99.99,,,-99.99,,2013-01-17 16:00:00,
2013-01-17 08:22:00,36.0,36.0,30.47,West,270,7.0,-999.0,97,-99.99,,,-99.99,,2013-01-17 16:22:00,
2013-01-17 08:32:00,36.0,36.0,30.47,West,270,7.0,-999.0,97,-99.99,,,-99.99,,2013-01-17 16:32:00,
2013-01-17 08:42:00,36.0,36.0,30.47,West,270,7.0,-999.0,97,-99.99,,,-99.99,,2013-01-17 16:42:00,
2013-01-17 08:52:00,36.0,36.0,30.47,West,270,7.0,-999.0,97,-99.99,,,-99.99,,2013-01-17 16:52:00,
2013-01-17 09:00:00,36.0,35.0,30.48,West,270,7.0,-999.0,96,-99.99,,,-99.99,,2013-01-17 17:00:00,
2013-01-17 09:22:00,36.0,35.0,30.48,West,270,7.0,-999.0,96,-99.99,,,-99.99,,2013-01-17 17:22:00,
2013-01-17 09:32:00,36.0,35.0,30.48,West,270,7.0,-999.0,96,-99.99,,,-99.99,,2013-01-17 17:32:00,
2013-01-17 09:42:00,36.0,35.0,30.48,West,270,7.0,-999.0,96,-99.99,,,-99.99,,2013-01-17 17:42:00,
2013-01-17 09:52:00,36.0,35.0,30.48,West,270,7.0,-999.0,96,-99.99,,,-99.99,,2013-01-17 17:52:00,
2013-01-17 10:00:00,35.0,34.0,30.47,West,280,5.0,-999.0,97,-99.99,,,-99.99,,2013-01-17 18:00:00,
2013-01-17 10:22:00,35.0,34.0,30.47,West,280,5.0,-999.0,97,-99.99,,,-99.99,,2013-01-17 18:22:00,
2013-01-17 10:32:00,35.0,34.0,30.47,West,280,5.0,-999.0,97,-99.99,,,-99.99,,2013-01-17 18:32:00,
2013-01-17 10:42:00,35.0,34.0,30.47,West,280,5.0,-999.0,97,-99.99,,,-99.99,,2013-01-17 18:42:00,
2013-01-17 10:52:00,35.0,34.0,30.47,West,280,5.0,-999.0,97,-99.99,,,-99.99,,2013-01-17 18:52:00,
2013-01-17 11:00:00,37.0,36.0,30.46,West,280,3.0,-999.0,95,-99.99,,,-99.99,,2013-01-17 19:00:00,
2013-01-17 11:22:00,37.0,36.0,30.46,West,280,3.0,-999.0,95,-99.99,,,-99.99,,2013-01-17 19:22:00,
2013-01-17 11:32:00,37.0,36.0,30.46,West,280,3.0,-999.0,95,-99.99,,,-99.99,,2013-01-17 19:32:00,
2013-01-17 11:42:00,37.0,36.0,30.46,West,280,3.0,-999.0,95,-99.99,,,-99.99,,2013-01-17 19:42:00,
2013-01-17 11:52:00,37.0,36.0,30.46,West,280,3.0,-999.0,95,-99.99,,,-99.99,,2013-01-17 19:52:00,
2013-01-17 12:00:00,39.0,36.0,30.44,West,260,3.0,-999.0,89,-99.99,,,-99.99,,2013-01-17 20:00:00,
2013-01-17 12:22:00,39.0,36.0,30.44,West,260,3.0,-999.0,89,-99.99,,,-99.99,,2013-01-17 20:22:00,
2013-01-17 12:32:00,39.0,36.0,30.44,West,260,3.0,-999.0,89,-99.99,,,-99.99,,2013-01-17 20:32:00,
2013-01-17 12:42:00,39.0,36.0,30.44,West,260,3.0,-999.0,89,-99.99,,,-99.99,,2013-01-17 20:42:00,
2013-01-17 12:53:00,39.0,36.0,30.44,West,260,3.0,-999.0,89,-99.99,,,-99.99,,2013-01-17 20:53:00,
2013-01-17 13:00:00,40.0,37.0,30.42,SW,230,3.0,-999.0,88,-99.99,,,-99.99,,2013-01-17 21:00:00,
2013-01-17 13:22:00,40.0,37.0,30.42,SW,230,3.0,-999.0,88,-99.99,,,-99.99,,2013-01-17 21:22:00,
2013-01-17 13:33:00,40.0,37.0,30.42,SW,230,3.0,-999.0,88,-99.99,,,-99.99,,2013-01-17 21:33:00,
2013-01-17 13:42:00,40.0,37.0,30.42,SW,230,3.0,-999.0,88,-99.99,,,-99.99,,2013-01-17 21:42:00,
2013-01-17 13:52:00,40.0,37.0,30.42,SW,230,3.0,-999.0,88,-99.99,,,-99.99,,2013-01-17 21:52:00,
2013-01-17 14:00:00,43.0,37.0,30.38,ESE,110,5.0,-999.0,79,-99.99,,,-99.99,,2013-01-17 22:00:00,
2013-01-17 14:22:00,43.0,37.0,30.38,ESE,110,5.0,-999.0,79,-99.99,,,-99.99,,2013-01-17 22:22:00,
2013-01-17 14:32:00,43.0,37.0,30.38,ESE,110,5.0,-999.0,79,-99.99,,,-99.99,,2013-01-17 22:32:00,
2013-01-17 14:42:00,43.0,37.0,30.38,ESE,110,5.0,-999.0,79,-99.99,,,-99.99,,2013-01-17 22:42:00,
2013-01-17 14:52:00,43.0,37.0,30.38,ESE,110,5.0,-999.0,79,-99.99,,,-99.99,,2013-01-17 22:52:00,
2013-01-17 15:00:00,43.0,38.0,30.35,East,100,6.0,-999.0,79,-99.99,,,-99.99,,2013-01-17 23:00:00,
2013-01-17 15:22:00,43.0,38.0,30.35,East,100,6.0,-999.0,79,-99.99,,,-99.99,,2013-01-17 23:22:00,
2013-01-17 15:32:00,43.0,38.0,30.35,East,100,6.0,-999.0,79,-99.99,,,-99.99,,2013-01-17 23:32:00,
2013-01-17 15:42:00,43.0,38.0,30.35,East,100,6.0,-999.0,79,-99.99,,,-99.99,,2013-01-17 23:42:00,
2013-01-17 15:52:00,43.0,38.0,30.35,East,100,6.0,-999.0,79,-99.99,,,-99.99,,2013-01-17 23:52:00,
2013-01-17 16:00:00,42.0,38.0,30.34,SE,130,7.0,-999.0,84,-99.99,,,-99.99,,2013-01-18 00:00:00,
2013-01-17 16:22:00,42.0,38.0,30.34,SE,130,7.0,-999.0,84,-99.99,,,-99.99,,2013-01-18 00:22:00,
2013-01-17 16:32:00,42.0,38.0,30.34,SE,130,7.0,-999.0,84,-99.99,,,-99.99,,2013-01-18 00:32:00,
2013-01-17 16:42:00,42.0,38.0,30.34,SE,130,7.0,-999.0,84,-99.99,,,-99.99,,2013-01-18 00:42:00,
2013-01-17 16:52:00,42.0,38.0,30.34,SE,130,7.0,-999.0,84,-99.99,,,-99.99,,2013-01-18 00:52:00,
2013-01-17 17:00:00,40.0,38.0,30.33,East,90,5.0,-999.0,90,-99.99,,,-99.99,,2013-01-18 01:00:00,
2013-01-17 17:22:00,40.0,38.0,30.33,East,90,5.0,-999.0,90,-99.99,,,-99.99,,2013-01-18 01:22:00,
2013-01-17 17:32:00,40.0,38.0,30.33,East,90,5.0,-999.0,90,-99.99,,,-99.99,,2013-01-18 01:32:00,
2013-01-17 17:42:00,40.0,38.0,30.33,East,90,5.0,-999.0,90,-99.99,,,-99.99,,2013-01-18 01:42:00,
2013-01-17 17:52:00,40.0,38.0,30.33,East,90,5.0,-999.0,90,-99.99,,,-99.99,,2013-01-18 01:52:00,
2013-01-17 18:00:00,39.0,37.0,30.34,ESE,110,6.0,-999.0,94,-99.99,,,-99.99,,2013-01-18 02:00:00,
2013-01-17 18:22:00,39.0,37.0,30.34,ESE,110,6.0,-999.0,94,-99.99,,,-99.99,,2013-01-18 02:22:00,
2013-01-17 18:32:00,39.0,37.0,30.34,ESE,110,6.0,-999.0,94,-99.99,,,-99.99,,2013-01-18 02:32:00,
2013-01-17 18:42:00,39.0,37.0,30.34,ESE,110,6.0,-999.0,94,-99.99,,,-99.99,,2013-01-18 02:42:00,
2013-01-17 18:52:00,39.0,37.0,30.34,ESE,110,6.0,-999.0,94,-99.99,,,-99.99,,2013-01-18 02:52:00,
2013-01-17 19:00:00,40.0,38.0,30.33,South,170,3.0,-999.0,95,-99.99,,,-99.99,,2013-01-18 03:00:00,
2013-01-17 19:22:00,40.0,38.0,30.33,South,170,3.0,-999.0,95,-99.99,,,-99.99,,2013-01-18 03:22:00,
2013-01-17 19:32:00,40.0,38.0,30.33,South,170,3.0,-999.0,95,-99.99,,,-99.99,,2013-01-18 03:32:00,
2013-01-17 19:42:00,40.0,38.0,30.33,South,170,3.0,-999.0,95,-99.99,,,-99.99,,2013-01-18 03:42:00,
2013-01-17 19:52:00,40.0,38.0,30.33,South,170,3.0,-999.0,95,-99.99,,,-99.99,,2013-01-18 03:52:00,
2013-01-17 20:00:00,39.0,38.0,30.33,SSW,210,2.0,-999.0,98,-99.99,,,-99.99,,2013-01-18 04:00:00,
2013-01-17 20:22:00,39.0,38.0,30.33,SSW,210,2.0,-999.0,98,-99.99,,,-99.99,,2013-01-18 04:22:00,
2013-01-17 20:32:00,39.0,38.0,30.33,SSW,210,2.0,-999.0,98,-99.99,,,-99.99,,2013-01-18 04:32:00,
2013-01-17 20:42:00,39.0,38.0,30.33,SSW,210,2.0,-999.0,98,-99.99,,,-99.99,,2013-01-18 04:42:00,
2013-01-17 20:52:00,39.0,38.0,30.33,SSW,210,2.0,-999.0,98,-99.99,,,-99.99,,2013-01-18 04:52:00,
2013-01-17 21:00:00,38.0,38.0,30.32,WSW,240,3.0,-999.0,98,-99.99,,,-99.99,,2013-01-18 05:00:00,
2013-01-17 21:22:00,38.0,38.0,30.32,WSW,240,3.0,-999.0,98,-99.99,,,-99.99,,2013-01-18 05:22:00,
2013-01-17 21:32:00,38.0,38.0,30.32,WSW,240,3.0,-999.0,98,-99.99,,,-99.99,,2013-01-18 05:32:00,
2013-01-17 21:42:00,38.0,38.0,30.32,WSW,240,3.0,-999.0,98,-99.99,,,-99.99,,2013-01-18 05:42:00,
2013-01-17 21:52:00,38.0,38.0,30.32,WSW,240,3.0,-999.0,98,-99.99,,,-99.99,,2013-01-18 05:52:00,
2013-01-17 22:00:00,37.0,37.0,30.32,West,270,3.0,-999.0,98,-99.99,,,-99.99,,2013-01-18 06:00:00,
2013-01-17 22:22:00,37.0,37.0,30.32,West,270,3.0,-999.0,98,-99.99,,,-99.99,,2013-01-18 06:22:00,
2013-01-17 22:32:00,37.0,37.0,30.32,West,270,3.0,-999.0,98,-99.99,,,-99.99,,2013-01-18 06:32:00,
2013-01-17 22:42:00,37.0,37.0,30.32,West,270,3.0,-999.0,98,-99.99,,,-99.99,,2013-01-18 06:42:00,
2013-01-17 22:52:00,37.0,37.0,30.32,West,270,3.0,-999.0,98,-99.99,,,-99.99,,2013-01-18 06:52:00,
2013-01-17 23:00:00,36.0,36.0,30.31,WNW,290,6.0,-999.0,98,-99.99,,,-99.99,,2013-01-18 07:00:00,
2013-01-17 23:22:00,36.0,36.0,30.31,WNW,290,6.0,-999.0,98,-99.99,,,-99.99,,2013-01-18 07:22:00,
2013-01-17 23:32:00,36.0,36.0,30.31,WNW,290,6.0,-999.0,98,-99.99,,,-99.99,,2013-01-18 07:32:00,
2013-01-17 23:42:00,36.0,36.0,30.31,WNW,290,6.0,-999.0,98,-99.99,,,-99.99,,2013-01-18 07:42:00,
2013-01-17 23:52:00,36.0,36.0,30.31,WNW,290,6.0,-999.0,98,-99.99,,,-99.99,,2013-01-18 07:52:00,